[[{"header":{"parameterUnit":"m.s-1","parameterCategory":1,"la1":30.2991,"la2":30.254,"lo1":-89.0895,"lo2":-89.0444,"dy":0.0017,"dx":0.0017,"nx":28,"ny":28,"refTime":"2025-03-27T21:00:00:Z","depth":0,"parameterNumber":2,"parameterNumberName":"U-component_of_WINDS"},"data":[0,0,0,0,0,0,0,0,0,0,0,0,0,0,0,0,0,0,0,0,0,0,0,0,0,0,0,0,0,0,0,0,0,0,0,0,0,0,0,0,0,0,0,0,0,0,0,0,0,0,0,0,0,0,0,0,0,0,-5.3475,-5.3476,0,-5.3568,-5.3569,-5.357,-5.3549,-5.3547,-5.3545,-5.3544,-5.364,-5.3644,-5.3648,0,0,0,0,0,0,0,0,0,0,0,0,0,-5.3282,-5.3285,-5.3475,-5.3476,-5.3478,-5.3568,-5.3569,-5.3571,-5.3549,-5.3547,-5.3545,-5.3543,-5.3638,-5.3643,-5.3648,0,0,0,0,0,0,0,0,0,0,0,0,0,-5.3369,-5.3287,-5.3475,-5.3478,-5.3479,-5.3568,-5.3569,-5.3571,-5.355,-5.3547,-5.3544,-5.3542,-5.3637,-5.3643,-5.3649,-5.3741,0,0,-5.3668,-5.3671,0,0,0,0,0,0,0,0,-5.3364,-5.3377,-5.3476,-5.3478,-5.3479,-5.3544,-5.3536,-5.3628,-5.355,-5.3523,-5.3544,-5.3541,-5.361,-5.3619,-5.3642,-5.3746,-5.375,-5.3669,-5.3673,-5.3676,-5.3677,0,0,0,0,0,0,0,-5.3358,-5.3372,-5.3512,-5.3478,-5.348,-5.3475,-5.3485,-5.3554,-5.358,-5.3525,-5.3524,-5.3535,-5.3611,-5.3636,-5.3644,-5.3751,-5.3669,-5.3674,-5.3678,-5.3681,-5.3936,-5.3939,0,0,0,0,0,0,-5.3351,-5.3367,-5.3509,-5.3515,-5.3414,-5.3481,-5.3492,-5.3526,-5.358,-5.3585,-5.3537,-5.3534,-5.3626,-5.3637,-5.3647,-5.3757,-5.3675,-5.3681,-5.3685,-5.3933,-5.3937,-5.394,0,0,0,0,0,0,-5.3347,-5.3364,-5.3505,-5.3441,-5.3459,-5.3487,-5.3526,-5.3529,-5.3554,-5.3589,-5.3593,-5.3558,-5.3625,-5.3638,-5.3718,-5.376,-5.3684,-5.369,-5.393,-5.3934,-5.3938,-5.3979,0,0,0,0,0,0,-5.3341,-5.3362,-5.3397,-5.3442,-5.3462,-5.3574,-5.3529,-5.3533,-5.3565,-5.3562,-5.3609,-5.3615,-5.3624,-5.3709,-5.3724,-5.3768,-5.3695,-5.3926,-5.3932,-5.3937,-5.3974,-5.3984,-5.3993,0,0,0,0,0,-5.3334,-5.3404,-5.3398,-5.3416,-5.3505,-5.3576,-5.3588,-5.3596,-5.3569,-5.3604,-5.3626,-5.3613,-5.3755,-5.3717,-5.3734,-5.378,-5.3923,-5.393,-5.3937,-5.397,-5.3982,-5.3993,0,0,0,0,0,0,-5.3363,-5.341,-5.3404,-5.3491,-5.353,-5.3572,-5.3616,-5.361,-5.3657,-5.3651,-5.3661,-5.3672,-5.3753,-5.3776,-5.3733,-5.3873,-5.3835,-5.3845,-5.3854,-5.3867,-5.3876,-5.3867,-5.37,0,0,0,0,0,-5.338,-5.3432,-5.3471,-5.3544,-5.3564,-5.3587,-5.3618,-5.3622,-5.3663,-5.3679,-5.3707,-5.3747,-5.3801,-5.3836,-5.3887,-5.3979,-5.3989,-5.402,-5.4029,-5.4037,-5.4045,-5.4095,-5.4109,-5.3962,-5.3962,-5.3962,0,0,-5.3414,-5.3446,-5.3479,-5.3551,-5.3581,-5.3636,-5.3601,-5.366,-5.3701,-5.3688,-5.3764,-5.3787,-5.3833,-5.3919,-5.3958,-5.394,-5.4088,-5.4046,-5.4052,-5.4055,-5.4103,-5.4117,-5.4129,-5.3967,-5.3966,-5.3965,0,0,-5.3503,-5.3534,-5.3597,-5.3629,-5.3676,-5.3692,-5.3707,-5.3752,-5.3766,-5.3843,-5.3835,-5.3885,-5.3977,-5.401,-5.4039,-5.4145,-5.4134,-5.4162,-5.421,-5.4259,-5.4271,-5.4281,-5.4317,-5.433,-5.417,-5.417,-5.4171,0,-5.3539,-5.362,-5.3631,-5.3691,-5.3723,-5.3715,-5.378,-5.3811,-5.3872,-5.3895,-5.3874,-5.399,-5.4021,-5.4114,-5.414,-5.4165,-5.4183,-5.4154,-5.4268,-5.4279,-5.4288,-5.4322,-5.4336,-5.4173,-5.4173,-5.4173,-5.4172,0,-5.3662,-5.3719,-5.3765,-5.3824,-5.3862,-5.3925,-5.3945,-5.3983,-5.3985,-5.4003,-5.4082,-5.4119,-5.4178,-5.4201,-5.4204,-5.4296,-5.4283,-5.4266,-5.4227,-5.4305,-5.4337,-5.435,-5.4177,-5.4176,-5.4175,-5.4175,0,0,-5.3767,-5.3834,-5.385,-5.3877,-5.393,-5.3975,-5.4038,-5.4095,-5.4126,-5.4171,-5.4223,-5.4304,-5.4288,-5.4321,-5.4328,-5.4372,-5.4451,-5.4349,-5.435,-5.4364,-5.4554,-5.4563,-5.4578,-5.4447,-5.445,-5.4452,-5.4549,0,-5.3859,-5.3968,-5.3981,-5.4079,-5.4132,-5.4127,-5.4183,-5.4222,-5.4242,-5.429,-5.4313,-5.4368,-5.4345,-5.4365,-5.4408,-5.4432,-5.4489,-5.4426,-5.4495,-5.4497,-5.4479,-5.4596,-5.4606,-5.4695,-5.4562,-5.4564,-5.4566,0,-5.3979,-5.4027,-5.4129,-5.4176,-5.4199,-5.4248,-5.4302,-5.4349,-5.4394,-5.4406,-5.4444,-5.4446,-5.4512,-5.4475,-5.4566,-5.4523,-5.4553,-5.457,-5.4574,-5.4577,-5.4533,-5.4599,-5.4725,-5.4737,-5.4586,-5.4584,-5.4583,0,-5.4042,-5.4133,-5.4205,-5.4229,-5.4286,-5.4321,-5.4346,-5.4389,-5.4423,-5.4472,-5.4494,-5.455,-5.458,-5.4624,-5.4641,-5.4613,-5.4731,-5.4695,-5.4742,-5.4741,-5.4763,-5.4761,-5.4892,-5.4789,-5.4789,-5.4788,-5.4788,0,-5.4141,-5.4203,-5.4234,-5.4279,-5.4349,-5.4365,-5.4435,-5.4459,-5.4498,-5.4548,-5.455,-5.4596,-5.4618,-5.4669,-5.4684,-5.4757,-5.4771,-5.4782,-5.4784,-5.478,-5.4778,-5.4796,-5.4789,-5.4792,-5.4791,-5.479,-5.479,0,-5.4221,-5.4244,-5.4323,-5.4372,-5.4386,-5.4435,-5.4477,-5.4521,-5.4542,-5.4605,-5.4621,-5.4654,-5.4714,-5.4738,-5.4811,-5.4821,-5.4904,-5.4904,-5.4888,-5.4888,-5.4932,-5.4926,-5.5076,-5.5096,-5.4983,-5.4984,-5.4985,0,-5.428,-5.4328,-5.4382,-5.4415,-5.4442,-5.4496,-5.4531,-5.455,-5.4587,-5.4643,-5.468,-5.4741,-5.4789,-5.4886,-5.4917,-5.4973,-5.4972,-5.5021,-5.498,-5.4974,-5.4969,-5.4965,-5.4969,-5.5027,-5.5028,-5.5029,-5.503,0,-5.4382,-5.4392,-5.4442,-5.4497,-5.4539,-5.4583,-5.4627,-5.4654,-5.468,-5.4722,-5.4783,-5.4821,-5.4897,-5.4956,-5.5015,-5.5042,-5.504,-5.5043,-5.5056,-5.505,-5.5037,-5.5042,-5.4905,-5.5038,-5.5037,-5.5037,-5.5036,-5.5036,-5.4452,-5.4494,-5.4539,-5.4595,-5.463,-5.4671,-5.4714,-5.4741,-5.4793,-5.4855,-5.4864,-5.493,-5.4976,-5.5055,-5.5086,-5.5138,-5.5125,-5.5144,-5.5149,-5.5152,-5.5154,-5.5033,-5.5149,-5.5149,-5.5149,-5.5149,-5.5148,0,-5.4551,-5.4581,-5.4633,-5.4693,-5.4738,-5.4734,-5.4782,-5.4819,-5.4877,-5.492,-5.4968,-5.504,-5.5098,-5.5135,-5.5194,-5.5229,-5.523,-5.5244,-5.5239,-5.5245,-5.5164,-5.5145,-5.5242,-5.5242,-5.5242,-5.5242,-5.5242,-5.5242,-5.4608,-5.4679,-5.4695,-5.4784,-5.4813,-5.4877,-5.4905,-5.4943,-5.4977,-5.5056,-5.5105,-5.5129,-5.517,-5.5233,-5.5287,-5.5296,-5.5317,-5.5331,-5.5339,-5.5261,-5.5251,-5.5242,-5.5224,-5.5336,-5.5337,-5.5416,-5.5417,-5.5418]},{"header":{"parameterUnit":"m.s-1","parameterCategory":1,"la1":30.2991,"la2":30.254,"lo1":-89.0895,"lo2":-89.0444,"dy":0.0017,"dx":0.0017,"nx":28,"ny":28,"refTime":"2025-03-27T21:00:00:Z","depth":0,"parameterNumber":3,"parameterNumberName":"V-component_of_WINDS"},"data":[0,0,0,0,0,0,0,0,0,0,0,0,0,0,0,0,0,0,0,0,0,0,0,0,0,0,0,0,0,0,0,0,0,0,0,0,0,0,0,0,0,0,0,0,0,0,0,0,0,0,0,0,0,0,0,0,0,0,4.194,4.194,0,4.1987,4.1988,4.1988,4.1977,4.1976,4.1976,4.1975,4.2018,4.202,4.2022,0,0,0,0,0,0,0,0,0,0,0,0,0,4.1837,4.1839,4.194,4.194,4.1941,4.1987,4.1988,4.1988,4.1977,4.1976,4.1975,4.1974,4.2018,4.202,4.2023,0,0,0,0,0,0,0,0,0,0,0,0,0,4.1883,4.184,4.194,4.1941,4.1942,4.1987,4.1988,4.1989,4.1978,4.1976,4.1975,4.1974,4.2017,4.202,4.2023,4.2068,0,0,4.2032,4.2033,0,0,0,0,0,0,0,0,4.188,4.1886,4.194,4.1941,4.1942,4.1975,4.1968,4.2015,4.1978,4.1964,4.1975,4.1973,4.2005,4.2009,4.202,4.207,4.2072,4.2032,4.2034,4.2035,4.2036,0,0,0,0,0,0,0,4.1877,4.1884,4.1958,4.1941,4.1942,4.1939,4.1944,4.1977,4.1991,4.1965,4.1964,4.197,4.2005,4.2018,4.2021,4.2073,4.2032,4.2035,4.2037,4.2038,4.2165,4.2166,0,0,0,0,0,0,4.1874,4.1882,4.1957,4.196,4.1907,4.1942,4.1947,4.1966,4.1991,4.1993,4.1971,4.197,4.2013,4.2018,4.2023,4.2079,4.2035,4.2038,4.204,4.2163,4.2165,4.2167,0,0,0,0,0,0,4.1872,4.188,4.1955,4.1921,4.193,4.1945,4.1966,4.1967,4.198,4.1996,4.1998,4.1982,4.2012,4.2019,4.2058,4.208,4.204,4.2042,4.2161,4.2164,4.2166,4.219,0,0,0,0,0,0,4.1869,4.188,4.1897,4.1921,4.1932,4.199,4.1967,4.1969,4.1986,4.1984,4.2006,4.2008,4.2012,4.2054,4.2061,4.2084,4.2045,4.2159,4.2162,4.2165,4.2188,4.2193,4.2198,0,0,0,0,0,4.1865,4.19,4.1898,4.1907,4.1954,4.1991,4.1997,4.2001,4.1988,4.2005,4.2016,4.2008,4.2077,4.2058,4.2066,4.209,4.2158,4.2162,4.2165,4.2185,4.2192,4.2198,0,0,0,0,0,0,4.1876,4.1903,4.1901,4.1946,4.1967,4.1989,4.2011,4.2008,4.2032,4.2029,4.2032,4.2037,4.2078,4.2088,4.2066,4.2136,4.2115,4.2121,4.2128,4.2135,4.214,4.2136,4.2047,0,0,0,0,0,4.1884,4.1913,4.1935,4.1972,4.1983,4.1996,4.2012,4.2014,4.2035,4.2043,4.2056,4.2076,4.2102,4.2119,4.2144,4.219,4.2195,4.2211,4.2216,4.222,4.2224,4.2251,4.2259,4.2178,4.2178,4.2178,0,0,4.1899,4.1918,4.1936,4.1975,4.1991,4.2021,4.2003,4.2034,4.2055,4.2047,4.2086,4.2097,4.2119,4.2162,4.2182,4.2171,4.2248,4.2225,4.2228,4.223,4.2255,4.2263,4.227,4.2181,4.218,4.218,0,0,4.1944,4.1961,4.1995,4.2013,4.2039,4.2048,4.2056,4.2081,4.2088,4.2128,4.2123,4.2149,4.2193,4.221,4.2224,4.228,4.2273,4.2288,4.2315,4.2341,4.2347,4.2353,4.2373,4.238,4.2292,4.2292,4.2292,0,4.1959,4.2004,4.2012,4.2045,4.2063,4.206,4.2095,4.2111,4.2143,4.2155,4.2144,4.2203,4.2217,4.2265,4.228,4.2291,4.2301,4.2284,4.2346,4.2352,4.2357,4.2376,4.2384,4.2294,4.2294,4.2294,4.2293,0,4.2023,4.2055,4.2079,4.2114,4.2134,4.2168,4.218,4.22,4.2202,4.2212,4.2253,4.2271,4.2301,4.2313,4.2313,4.2362,4.2355,4.2345,4.2324,4.2366,4.2384,4.2392,4.2296,4.2296,4.2295,4.2295,0,0,4.2071,4.2114,4.2122,4.2139,4.217,4.2194,4.2228,4.226,4.2278,4.2301,4.2329,4.237,4.2362,4.2378,4.2381,4.2404,4.2448,4.2391,4.2392,4.2401,4.2504,4.2511,4.252,4.2445,4.2447,4.2448,4.2502,0,4.2118,4.2181,4.219,4.2244,4.2275,4.2275,4.2305,4.2327,4.2338,4.2365,4.2376,4.2405,4.2392,4.2403,4.2426,4.2438,4.2469,4.2434,4.2471,4.2472,4.2465,4.2529,4.2536,4.2587,4.251,4.2511,4.2512,0,4.218,4.2209,4.2267,4.2298,4.231,4.2337,4.2369,4.2395,4.242,4.2427,4.2448,4.2449,4.2484,4.2463,4.2512,4.2488,4.2504,4.2513,4.2515,4.2518,4.2494,4.2533,4.2603,4.2611,4.2523,4.2522,4.2521,0,4.2211,4.2264,4.2306,4.2321,4.2357,4.2376,4.2391,4.2416,4.2435,4.2463,4.2475,4.2505,4.2522,4.2545,4.2554,4.2538,4.2603,4.2582,4.2609,4.2609,4.2622,4.262,4.2694,4.2633,4.2633,4.2633,4.2632,0,4.2262,4.2298,4.2321,4.2347,4.2388,4.2399,4.2438,4.2453,4.2476,4.2504,4.2505,4.2532,4.2543,4.2571,4.2578,4.2619,4.2626,4.2632,4.2633,4.2632,4.2631,4.2641,4.2638,4.2635,4.2634,4.2634,4.2633,0,4.2302,4.2319,4.2365,4.2397,4.2406,4.2435,4.2462,4.2487,4.25,4.2536,4.2545,4.2564,4.2598,4.261,4.265,4.2655,4.2702,4.27,4.2694,4.2694,4.2721,4.2718,4.2803,4.2815,4.2746,4.2747,4.2747,0,4.2333,4.2361,4.2397,4.2418,4.2435,4.2468,4.2489,4.2502,4.2524,4.2558,4.2579,4.2613,4.2641,4.2695,4.2711,4.2743,4.2742,4.277,4.2746,4.2745,4.2743,4.2741,4.2744,4.2773,4.2774,4.2775,4.2775,0,4.2386,4.2395,4.2426,4.2462,4.2488,4.2516,4.2543,4.2559,4.2577,4.2601,4.2637,4.2659,4.2703,4.2736,4.2769,4.2784,4.2783,4.2783,4.2791,4.2789,4.2784,4.2788,4.2706,4.278,4.278,4.278,4.2779,4.2779,4.2423,4.2449,4.248,4.2516,4.2539,4.2565,4.2591,4.2609,4.264,4.2678,4.2684,4.2723,4.275,4.2794,4.2811,4.2841,4.2833,4.2844,4.2847,4.285,4.2852,4.2781,4.2847,4.2847,4.2847,4.2846,4.2846,0,4.2477,4.2498,4.2531,4.2571,4.26,4.26,4.263,4.2654,4.2689,4.2716,4.2745,4.2787,4.2821,4.2842,4.2876,4.2897,4.2897,4.2905,4.2903,4.2907,4.2857,4.2847,4.2904,4.2904,4.2904,4.2904,4.2904,4.2904,4.2508,4.2553,4.2566,4.2623,4.2643,4.2683,4.2701,4.2726,4.2747,4.2796,4.2825,4.284,4.2865,4.2901,4.2933,4.2938,4.295,4.2959,4.2964,4.2916,4.291,4.2904,4.2895,4.2962,4.2962,4.3012,4.3012,4.3012]}]]